When you browse on this site, cookies collect data to enhance your experience and personalize the content and advertising you see.
Visit our Privacy Policy to learn more. By continuing to use the site, you agree to this use of cookies and data.
  • In Österreich
  • Länderverzeichnis
  • Für 7 Tage
  • Wassertemperatur
  • Satellitenkarten
  • Wetterkarte
  • News
  • Widgets
  • user-avatar
    Anmelden

    Stündliche Wetter Sydney

    Heute, 18 Januar, Freitag

    Zeit Temperatur Niederschläge Wind Luftdruck Luftfeuchtigkeit
    00:00 +26°C° 0 mm 3 m/S 757 mmHg 75%
    01:00 +26°C° 0 mm 2 m/S 757 mmHg 78%
    02:00 +25°C° 0 mm 2 m/S 757 mmHg 82%
    03:00 +25°C° 0 mm 2 m/S 757 mmHg 85%
    04:00 +25°C° 0 mm 3 m/S 759 mmHg 86%
    05:00 +25°C° 0 mm 3 m/S 759 mmHg 83%
    06:00 +26°C° 0 mm 3 m/S 759 mmHg 80%
    07:00 +27°C° 0 mm 3 m/S 759 mmHg 77%
    08:00 +29°C° 0 mm 4 m/S 758 mmHg 68%
    09:00 +32°C° 0 mm 4 m/S 758 mmHg 59%
    10:00 +34°C° 0 mm 4 m/S 758 mmHg 49%
    11:00 +36°C° 0 mm 4 m/S 757 mmHg 44%
    12:00 +37°C° 0 mm 5 m/S 757 mmHg 38%
    13:00 +40°C° 0 mm 5 m/S 756 mmHg 32%
    14:00 +40°C° 0 mm 6 m/S 756 mmHg 35%
    15:00 +39°C° 0 mm 6 m/S 755 mmHg 38%
    16:00 +39°C° 0 mm 7 m/S 754 mmHg 41%
    17:00 +36°C° 0 mm 7 m/S 754 mmHg 46%
    18:00 +34°C° 0 mm 7 m/S 754 mmHg 50%
    19:00 +33°C° 0 mm 7 m/S 754 mmHg 55%
    20:00 +33°C° 0 mm 7 m/S 755 mmHg 54%
    21:00 +33°C° 0 mm 6 m/S 755 mmHg 52%
    22:00 +33°C° 0 mm 5 m/S 755 mmHg 50%
    23:00 +32°C° 0 mm 5 m/S 755 mmHg 48%

    Morgen, 19 Januar, Samstag

    Zeit Temperatur Niederschläge Wind Luftdruck Luftfeuchtigkeit
    00:00 +32°C° 0 mm 4 m/S 756 mmHg 46%
    01:00 +30°C° 0 mm 3 m/S 756 mmHg 44%
    02:00 +30°C° 0 mm 3 m/S 756 mmHg 48%
    03:00 +30°C° 0 mm 3 m/S 757 mmHg 52%
    04:00 +29°C° 0 mm 4 m/S 757 mmHg 56%
    05:00 +29°C° 0 mm 4 m/S 758 mmHg 58%
    06:00 +29°C° 0 mm 4 m/S 759 mmHg 60%
    07:00 +29°C° 0 mm 5 m/S 759 mmHg 62%
    08:00 +29°C° 0 mm 6 m/S 760 mmHg 64%
    09:00 +28°C° 0 mm 7 m/S 761 mmHg 66%
    10:00 +27°C° 0 mm 8 m/S 761 mmHg 68%
    11:00 +28°C° 0 mm 8 m/S 762 mmHg 63%
    12:00 +29°C° 0 mm 8 m/S 762 mmHg 59%
    13:00 +29°C° 0 mm 8 m/S 762 mmHg 55%
    14:00 +28°C° 0.1 mm 7 m/S 762 mmHg 59%
    15:00 +27°C° 0.1 mm 7 m/S 762 mmHg 63%
    16:00 +26°C° 0.1 mm 6 m/S 763 mmHg 67%
    17:00 +26°C° 0.2 mm 6 m/S 763 mmHg 68%
    18:00 +25°C° 0.2 mm 5 m/S 764 mmHg 68%
    19:00 +25°C° 0.2 mm 4 m/S 764 mmHg 69%
    20:00 +23°C° 0.2 mm 4 m/S 765 mmHg 70%
    21:00 +24°C° 0.2 mm 3 m/S 765 mmHg 70%
    22:00 +24°C° 0.2 mm 3 m/S 766 mmHg 71%
    23:00 +24°C° 0.1 mm 3 m/S 765 mmHg 72%

    übermorgen, 20 Januar, Sonntag

    Zeit Temperatur Niederschläge Wind Luftdruck Luftfeuchtigkeit
    00:00 +23°C° 0.1 mm 2 m/S 765 mmHg 72%
    01:00 +23°C° 0.1 mm 2 m/S 765 mmHg 73%
    02:00 +23°C° 0 mm 2 m/S 764 mmHg 73%
    03:00 +23°C° 0 mm 2 m/S 764 mmHg 73%
    04:00 +23°C° 0 mm 1 m/S 764 mmHg 74%
    05:00 +23°C° 0 mm 1 m/S 764 mmHg 71%
    06:00 +24°C° 0 mm 1 m/S 765 mmHg 69%
    07:00 +25°C° 0 mm 1 m/S 765 mmHg 67%
    08:00 +26°C° 0 mm 2 m/S 765 mmHg 62%
    09:00 +28°C° 0 mm 2 m/S 765 mmHg 57%
    10:00 +29°C° 0 mm 2 m/S 765 mmHg 52%
    11:00 +30°C° 0 mm 3 m/S 764 mmHg 51%
    12:00 +32°C° 0 mm 4 m/S 764 mmHg 50%
    13:00 +32°C° 0 mm 4 m/S 763 mmHg 49%
    14:00 +32°C° 0 mm 5 m/S 763 mmHg 52%
    15:00 +30°C° 0 mm 5 m/S 762 mmHg 55%
    16:00 +30°C° 0 mm 5 m/S 762 mmHg 58%
    17:00 +28°C° 0.3 mm 5 m/S 762 mmHg 64%
    18:00 +27°C° 0.3 mm 5 m/S 762 mmHg 70%
    19:00 +26°C° 0.3 mm 5 m/S 763 mmHg 76%
    20:00 +26°C° 0.2 mm 4 m/S 763 mmHg 78%
    21:00 +25°C° 0.2 mm 3 m/S 764 mmHg 80%
    22:00 +25°C° 0.2 mm 3 m/S 765 mmHg 81%
    23:00 +25°C° 0.3 mm 2 m/S 765 mmHg 83%

    21 Januar, Montag

    Zeit Temperatur Niederschläge Wind Luftdruck Luftfeuchtigkeit
    00:00 +25°C° 0.3 mm 2 m/S 764 mmHg 84%
    01:00 +24°C° 0.3 mm 2 m/S 764 mmHg 85%
    02:00 +24°C° 0 mm 2 m/S 763 mmHg 85%
    03:00 +24°C° 0 mm 1 m/S 763 mmHg 85%
    04:00 +24°C° 0 mm 1 m/S 763 mmHg 85%
    05:00 +25°C° 0 mm 1 m/S 763 mmHg 82%
    06:00 +25°C° 0 mm 2 m/S 763 mmHg 80%
    07:00 +26°C° 0 mm 2 m/S 764 mmHg 77%
    08:00 +27°C° 0 mm 2 m/S 764 mmHg 73%
    09:00 +28°C° 0 mm 2 m/S 764 mmHg 68%
    10:00 +28°C° 0 mm 2 m/S 764 mmHg 63%
    11:00 +29°C° 0 mm 3 m/S 763 mmHg 63%
    12:00 +29°C° 0 mm 3 m/S 763 mmHg 62%
    13:00 +29°C° 0 mm 3 m/S 762 mmHg 62%
    14:00 +30°C° 0 mm 4 m/S 762 mmHg 61%
    15:00 +30°C° 0 mm 5 m/S 761 mmHg 61%
    16:00 +32°C° 0 mm 5 m/S 761 mmHg 60%
    17:00 +29°C° 0 mm 5 m/S 761 mmHg 66%
    18:00 +28°C° 0 mm 6 m/S 761 mmHg 72%
    19:00 +27°C° 0 mm 6 m/S 761 mmHg 79%
    20:00 +27°C° 0 mm 5 m/S 762 mmHg 81%
    21:00 +26°C° 0 mm 4 m/S 762 mmHg 83%
    22:00 +26°C° 0 mm 3 m/S 763 mmHg 85%
    23:00 +26°C° 0 mm 3 m/S 762 mmHg 86%

    22 Januar, Dienstag

    Zeit Temperatur Niederschläge Wind Luftdruck Luftfeuchtigkeit
    00:00 +26°C° 0 mm 4 m/S 762 mmHg 87%
    01:00 +25°C° 0 mm 4 m/S 761 mmHg 88%
    02:00 +25°C° 0 mm 3 m/S 761 mmHg 89%
    03:00 +25°C° 0 mm 2 m/S 760 mmHg 90%
    04:00 +25°C° 0 mm 1 m/S 760 mmHg 91%
    05:00 +26°C° 0 mm 2 m/S 761 mmHg 90%
    06:00 +26°C° 0 mm 2 m/S 761 mmHg 88%
    07:00 +26°C° 0 mm 2 m/S 761 mmHg 87%
    08:00 +28°C° 0 mm 2 m/S 761 mmHg 80%
    09:00 +29°C° 0 mm 3 m/S 761 mmHg 72%
    10:00 +31°C° 0 mm 3 m/S 760 mmHg 65%
    11:00 +34°C° 0 mm 3 m/S 760 mmHg 58%
    12:00 +36°C° 0 mm 4 m/S 759 mmHg 51%
    13:00 +38°C° 0 mm 4 m/S 758 mmHg 45%
    14:00 +37°C° 0 mm 5 m/S 758 mmHg 47%
    15:00 +36°C° 0 mm 5 m/S 757 mmHg 50%
    16:00 +35°C° 0 mm 6 m/S 757 mmHg 53%
    17:00 +34°C° 0.1 mm 6 m/S 757 mmHg 60%
    18:00 +32°C° 0.1 mm 6 m/S 757 mmHg 67%
    19:00 +29°C° 0.1 mm 6 m/S 757 mmHg 75%
    20:00 +29°C° 1 mm 5 m/S 757 mmHg 77%
    21:00 +28°C° 1 mm 4 m/S 757 mmHg 79%
    22:00 +28°C° 1 mm 4 m/S 758 mmHg 80%
    23:00 +28°C° 0 mm 3 m/S 757 mmHg 80%

    23 Januar, Mittwoch

    Zeit Temperatur Niederschläge Wind Luftdruck Luftfeuchtigkeit
    00:00 +28°C° 0 mm 2 m/S 757 mmHg 80%
    01:00 +27°C° 0 mm 1 m/S 756 mmHg 80%
    02:00 +27°C° 0.1 mm 1 m/S 756 mmHg 79%
    03:00 +27°C° 0.1 mm 1 m/S 756 mmHg 79%
    04:00 +27°C° 0.1 mm 1 m/S 756 mmHg 79%
    05:00 +27°C° 0.3 mm 2 m/S 756 mmHg 81%
    06:00 +27°C° 0.3 mm 3 m/S 757 mmHg 83%
    07:00 +27°C° 0.3 mm 4 m/S 757 mmHg 85%
    08:00 +29°C° 0 mm 4 m/S 757 mmHg 77%
    09:00 +32°C° 0 mm 5 m/S 758 mmHg 69%
    10:00 +33°C° 0 mm 5 m/S 758 mmHg 61%
    11:00 +33°C° 0 mm 5 m/S 757 mmHg 62%
    12:00 +33°C° 0 mm 6 m/S 757 mmHg 63%
    13:00 +33°C° 0 mm 7 m/S 757 mmHg 64%
    14:00 +32°C° 0 mm 6 m/S 757 mmHg 63%
    15:00 +32°C° 0 mm 6 m/S 757 mmHg 62%
    16:00 +32°C° 0 mm 5 m/S 756 mmHg 61%
    17:00 +29°C° 0 mm 6 m/S 757 mmHg 64%
    18:00 +28°C° 0 mm 6 m/S 757 mmHg 66%
    19:00 +27°C° 0 mm 6 m/S 757 mmHg 69%
    20:00 +26°C° 0 mm 5 m/S 758 mmHg 71%
    21:00 +26°C° 0 mm 4 m/S 758 mmHg 74%
    22:00 +25°C° 0 mm 3 m/S 759 mmHg 76%
    23:00 +25°C° 0 mm 3 m/S 759 mmHg 77%
    Mehr zeigen